[[{"header":{"parameterUnit":"m.s-1","parameterCategory":1,"la1":30.2991,"la2":30.254,"lo1":-89.0895,"lo2":-89.0444,"dy":0.0017,"dx":0.0017,"nx":28,"ny":28,"refTime":"2025-12-21T09:00:00:Z","depth":0,"parameterNumber":2,"parameterNumberName":"U-component_of_WINDS"},"data":[0,0,0,0,0,0,0,0,0,0,0,0,0,0,0,0,0,0,0,0,0,0,0,0,0,0,0,0,0,0,0,0,0,0,0,0,0,0,0,0,0,0,0,0,0,0,0,0,0,0,0,0,0,0,0,0,0,0,-1.7813,-1.7814,0,-1.7891,-1.7892,-1.7893,-1.7876,-1.7874,-1.7873,-1.7871,-1.7955,-1.7958,-1.7962,0,0,0,0,0,0,0,0,0,0,0,0,0,-1.7651,-1.7654,-1.7813,-1.7814,-1.7815,-1.7891,-1.7892,-1.7893,-1.7876,-1.7874,-1.7872,-1.7871,-1.7953,-1.7958,-1.7962,0,0,0,0,0,0,0,0,0,0,0,0,0,-1.7724,-1.7655,-1.7813,-1.7815,-1.7816,-1.7891,-1.7892,-1.7894,-1.7876,-1.7874,-1.7872,-1.787,-1.7952,-1.7957,-1.7963,-1.8041,0,0,-1.7979,-1.7981,0,0,0,0,0,0,0,0,-1.772,-1.773,-1.7814,-1.7815,-1.7816,-1.7871,-1.7866,-1.7943,-1.7877,-1.7854,-1.7871,-1.7869,-1.7929,-1.7936,-1.7956,-1.8045,-1.8048,-1.798,-1.7983,-1.7985,-1.7987,0,0,0,0,0,0,0,-1.7715,-1.7727,-1.7844,-1.7815,-1.7817,-1.7813,-1.7821,-1.788,-1.7903,-1.7855,-1.7854,-1.7864,-1.7929,-1.7951,-1.7958,-1.8049,-1.7979,-1.7984,-1.7988,-1.799,-1.8205,-1.8208,0,0,0,0,0,0,-1.7709,-1.7723,-1.7842,-1.7846,-1.7762,-1.7818,-1.7827,-1.7856,-1.7902,-1.7907,-1.7866,-1.7863,-1.7942,-1.7951,-1.796,-1.8054,-1.7985,-1.799,-1.7993,-1.8203,-1.8206,-1.8209,0,0,0,0,0,0,-1.7705,-1.7719,-1.7838,-1.7784,-1.7799,-1.7823,-1.7856,-1.7859,-1.788,-1.791,-1.7914,-1.7883,-1.7941,-1.7953,-1.802,-1.8056,-1.7993,-1.7998,-1.82,-1.8204,-1.8207,-1.8241,0,0,0,0,0,0,-1.77,-1.7718,-1.7747,-1.7785,-1.7802,-1.7896,-1.7858,-1.7862,-1.7889,-1.7886,-1.7927,-1.7932,-1.794,-1.8012,-1.8026,-1.8063,-1.8002,-1.8197,-1.8202,-1.8206,-1.8237,-1.8246,-1.8253,0,0,0,0,0,-1.7695,-1.7755,-1.7749,-1.7763,-1.7839,-1.7898,-1.7908,-1.7915,-1.7892,-1.7922,-1.7941,-1.7931,-1.8051,-1.8019,-1.8034,-1.8073,-1.8195,-1.82,-1.8206,-1.8233,-1.8244,-1.8253,0,0,0,0,0,0,-1.7721,-1.776,-1.7754,-1.7827,-1.786,-1.7895,-1.7933,-1.7927,-1.7967,-1.7962,-1.7971,-1.798,-1.8049,-1.8068,-1.8033,-1.8151,-1.8119,-1.8128,-1.8135,-1.8146,-1.8153,-1.8146,-1.8006,0,0,0,0,0,-1.7736,-1.778,-1.7811,-1.7873,-1.789,-1.7909,-1.7935,-1.7938,-1.7972,-1.7986,-1.801,-1.8044,-1.8089,-1.8119,-1.8162,-1.824,-1.8249,-1.8275,-1.8283,-1.8289,-1.8296,-1.8338,-1.8349,-1.8227,-1.8227,-1.8227,0,0,-1.7766,-1.7792,-1.782,-1.7879,-1.7905,-1.795,-1.792,-1.797,-1.8005,-1.7994,-1.8058,-1.8077,-1.8116,-1.8189,-1.8222,-1.8207,-1.8332,-1.8296,-1.8301,-1.8305,-1.8345,-1.8356,-1.8367,-1.8231,-1.823,-1.8229,0,0,-1.7844,-1.7869,-1.7922,-1.7948,-1.7987,-1.7999,-1.8012,-1.8049,-1.806,-1.8125,-1.8117,-1.8159,-1.8237,-1.8265,-1.8289,-1.8378,-1.837,-1.8393,-1.8434,-1.8474,-1.8484,-1.8492,-1.8523,-1.8534,-1.84,-1.84,-1.84,0,-1.7877,-1.7944,-1.7951,-1.8002,-1.8028,-1.8019,-1.8074,-1.8099,-1.815,-1.8169,-1.8151,-1.8249,-1.8274,-1.8353,-1.8374,-1.8395,-1.841,-1.8387,-1.8482,-1.8491,-1.8499,-1.8528,-1.8539,-1.8402,-1.8402,-1.8402,-1.8401,0,-1.7982,-1.803,-1.8069,-1.8116,-1.8148,-1.82,-1.8215,-1.8246,-1.8247,-1.8261,-1.8327,-1.8358,-1.8407,-1.8426,-1.8428,-1.8505,-1.8494,-1.848,-1.8447,-1.8512,-1.854,-1.8551,-1.8406,-1.8405,-1.8404,-1.8403,0,0,-1.8077,-1.8129,-1.8143,-1.8164,-1.8206,-1.8243,-1.8296,-1.8342,-1.8368,-1.8404,-1.8448,-1.8514,-1.8501,-1.8528,-1.8533,-1.8569,-1.8636,-1.855,-1.8551,-1.8563,-1.8721,-1.8731,-1.8743,-1.8632,-1.8634,-1.8636,-1.8718,0,-1.8158,-1.8248,-1.8256,-1.8338,-1.8381,-1.8374,-1.842,-1.8451,-1.8466,-1.8506,-1.8524,-1.8569,-1.8549,-1.8565,-1.8601,-1.862,-1.8667,-1.8615,-1.8672,-1.8674,-1.866,-1.8758,-1.8768,-1.8844,-1.8728,-1.873,-1.8732,0,-1.8263,-1.83,-1.8386,-1.8421,-1.844,-1.848,-1.8523,-1.8562,-1.8597,-1.8606,-1.8637,-1.8637,-1.8691,-1.8659,-1.8734,-1.8698,-1.8722,-1.8736,-1.8739,-1.8743,-1.8705,-1.8763,-1.8868,-1.8879,-1.8749,-1.8747,-1.8746,0,-1.8321,-1.8394,-1.8454,-1.8473,-1.8516,-1.8544,-1.8564,-1.8597,-1.8625,-1.8663,-1.8681,-1.8726,-1.8751,-1.8786,-1.8798,-1.8774,-1.8872,-1.8841,-1.8881,-1.888,-1.89,-1.8898,-1.9009,-1.8919,-1.8919,-1.8919,-1.8919,0,-1.8408,-1.846,-1.848,-1.8517,-1.8576,-1.8585,-1.8643,-1.8661,-1.8691,-1.8731,-1.873,-1.8768,-1.8783,-1.8825,-1.8835,-1.8895,-1.8907,-1.8915,-1.8917,-1.8914,-1.8912,-1.8928,-1.8922,-1.8922,-1.8921,-1.8921,-1.892,0,-1.8482,-1.8498,-1.8563,-1.8598,-1.8608,-1.865,-1.8681,-1.8716,-1.8731,-1.8783,-1.8796,-1.882,-1.8868,-1.8884,-1.8944,-1.8951,-1.902,-1.9018,-1.9007,-1.9007,-1.9044,-1.904,-1.9167,-1.9184,-1.9085,-1.9086,-1.9087,0,-1.8536,-1.8575,-1.8615,-1.8641,-1.8662,-1.8705,-1.8733,-1.8744,-1.8773,-1.8817,-1.8847,-1.8895,-1.8934,-1.9012,-1.9035,-1.908,-1.9078,-1.912,-1.9085,-1.908,-1.9076,-1.9073,-1.9076,-1.9125,-1.9126,-1.9127,-1.9128,0,-1.8628,-1.8634,-1.8673,-1.8716,-1.8749,-1.8783,-1.8816,-1.8839,-1.8855,-1.8888,-1.8937,-1.8967,-1.9026,-1.9074,-1.912,-1.9141,-1.9137,-1.9139,-1.915,-1.9146,-1.9137,-1.9141,-1.9022,-1.9136,-1.9135,-1.9134,-1.9134,-1.9134,-1.8692,-1.8727,-1.876,-1.8804,-1.883,-1.8861,-1.8896,-1.8915,-1.8956,-1.9004,-1.9009,-1.9061,-1.9096,-1.9158,-1.9181,-1.9223,-1.9211,-1.9228,-1.9232,-1.9235,-1.9237,-1.9133,-1.9232,-1.9231,-1.9231,-1.9231,-1.9231,0,-1.8783,-1.8804,-1.8844,-1.889,-1.8925,-1.8918,-1.8955,-1.8984,-1.903,-1.9063,-1.91,-1.9156,-1.9202,-1.9229,-1.9275,-1.9303,-1.9303,-1.9315,-1.9312,-1.9316,-1.9245,-1.923,-1.9314,-1.9314,-1.9314,-1.9314,-1.9314,-1.9314,-1.8834,-1.8891,-1.8901,-1.8972,-1.8993,-1.9043,-1.9064,-1.9093,-1.9119,-1.9181,-1.9218,-1.9236,-1.9266,-1.9314,-1.9356,-1.9363,-1.9379,-1.9392,-1.9398,-1.933,-1.9322,-1.9313,-1.9299,-1.9396,-1.9397,-1.9465,-1.9466,-1.9466]},{"header":{"parameterUnit":"m.s-1","parameterCategory":1,"la1":30.2991,"la2":30.254,"lo1":-89.0895,"lo2":-89.0444,"dy":0.0017,"dx":0.0017,"nx":28,"ny":28,"refTime":"2025-12-21T09:00:00:Z","depth":0,"parameterNumber":3,"parameterNumberName":"V-component_of_WINDS"},"data":[0,0,0,0,0,0,0,0,0,0,0,0,0,0,0,0,0,0,0,0,0,0,0,0,0,0,0,0,0,0,0,0,0,0,0,0,0,0,0,0,0,0,0,0,0,0,0,0,0,0,0,0,0,0,0,0,0,0,1.1213,1.1215,0,1.1361,1.1362,1.1364,1.1324,1.1321,1.1318,1.1315,1.1471,1.1477,1.1484,0,0,0,0,0,0,0,0,0,0,0,0,0,1.0899,1.0905,1.1213,1.1215,1.1217,1.136,1.1362,1.1364,1.1324,1.1321,1.1317,1.1314,1.1468,1.1477,1.1485,0,0,0,0,0,0,0,0,0,0,0,0,0,1.104,1.0907,1.1213,1.1214,1.1215,1.136,1.1363,1.1365,1.1325,1.1321,1.1316,1.1312,1.1466,1.1476,1.1486,1.164,0,0,1.1518,1.1522,0,0,0,0,0,0,0,0,1.1032,1.1052,1.1212,1.1214,1.1216,1.1319,1.1309,1.1457,1.1326,1.1284,1.1315,1.131,1.1424,1.1438,1.1475,1.1647,1.1654,1.1519,1.1525,1.153,1.1533,0,0,0,0,0,0,0,1.1022,1.1045,1.1271,1.1214,1.1217,1.1208,1.1223,1.1337,1.1377,1.1287,1.1284,1.1302,1.1425,1.1466,1.1479,1.1656,1.1519,1.1528,1.1534,1.1538,1.1961,1.1966,0,0,0,0,0,0,1.101,1.1037,1.1267,1.1276,1.1111,1.1217,1.1234,1.1291,1.1376,1.1385,1.1306,1.13,1.145,1.1467,1.1484,1.167,1.1529,1.1539,1.1545,1.1956,1.1962,1.1967,0,0,0,0,0,0,1.1004,1.1031,1.1261,1.1156,1.1184,1.1227,1.1291,1.1296,1.1337,1.139,1.1398,1.134,1.1447,1.147,1.1601,1.1675,1.1544,1.1553,1.195,1.1958,1.1965,1.2043,0,0,0,0,0,0,1.0995,1.1029,1.1088,1.1157,1.119,1.1375,1.1296,1.1302,1.1354,1.1348,1.1424,1.1433,1.1445,1.1586,1.1611,1.1687,1.1561,1.1944,1.1953,1.1962,1.2034,1.2052,1.2068,0,0,0,0,0,1.0984,1.1105,1.1091,1.1119,1.1264,1.1379,1.1398,1.1409,1.136,1.142,1.1454,1.143,1.1662,1.16,1.1628,1.1708,1.1939,1.1951,1.1962,1.2027,1.2049,1.2068,0,0,0,0,0,0,1.1045,1.1114,1.1099,1.1246,1.1307,1.1372,1.1448,1.1432,1.1509,1.15,1.1511,1.1528,1.1663,1.1698,1.1627,1.1861,1.1794,1.1811,1.1833,1.1855,1.1871,1.1861,1.157,0,0,0,0,0,1.1075,1.1162,1.1218,1.1342,1.1373,1.1405,1.1456,1.1458,1.1522,1.1548,1.1592,1.1656,1.1743,1.18,1.1883,1.2038,1.2054,1.2107,1.2123,1.2137,1.2153,1.2237,1.2261,1.2004,1.2004,1.2004,0,0,1.114,1.1188,1.1243,1.1356,1.1403,1.1494,1.1427,1.1526,1.1594,1.1564,1.1691,1.1725,1.1797,1.194,1.2006,1.1974,1.2227,1.2151,1.2162,1.2171,1.2251,1.2276,1.2297,1.2012,1.201,1.2009,0,0,1.1303,1.1348,1.1457,1.1504,1.1576,1.1596,1.1622,1.1689,1.171,1.1837,1.1816,1.1896,1.2046,1.2098,1.2144,1.2324,1.2306,1.2351,1.2441,1.2522,1.2543,1.2561,1.2626,1.265,1.2366,1.2366,1.2366,0,1.1375,1.151,1.1515,1.1615,1.1666,1.164,1.175,1.1797,1.1893,1.1929,1.1891,1.2077,1.2124,1.2279,1.2323,1.236,1.2391,1.2344,1.2539,1.2557,1.2574,1.2637,1.2661,1.2371,1.2371,1.237,1.237,0,1.1594,1.1688,1.1767,1.1858,1.1917,1.2022,1.2044,1.2103,1.21,1.2124,1.2253,1.2307,1.2401,1.2437,1.2436,1.2593,1.257,1.2536,1.2469,1.2604,1.2663,1.2687,1.2379,1.2377,1.2375,1.2374,0,0,1.1805,1.1895,1.1924,1.1965,1.204,1.2113,1.2216,1.2306,1.2357,1.2423,1.2511,1.2636,1.2604,1.2656,1.266,1.2731,1.2871,1.2688,1.269,1.2721,1.3048,1.3076,1.3103,1.2858,1.2862,1.2866,1.3043,0,1.1976,1.2157,1.2164,1.2329,1.2416,1.2391,1.2481,1.2537,1.2562,1.264,1.2667,1.2756,1.2706,1.2737,1.2807,1.284,1.2938,1.2827,1.2942,1.2946,1.2927,1.3134,1.3164,1.3328,1.3066,1.307,1.3072,0,1.2202,1.2273,1.2447,1.2508,1.2545,1.2626,1.2708,1.2781,1.2845,1.2857,1.2914,1.2906,1.3013,1.294,1.3087,1.3011,1.3058,1.3081,1.3087,1.3101,1.3019,1.3155,1.3381,1.3406,1.3109,1.3106,1.3103,0,1.234,1.2478,1.26,1.2635,1.271,1.2768,1.2802,1.286,1.2913,1.2984,1.3019,1.3102,1.3149,1.3213,1.3229,1.3174,1.3376,1.3304,1.3391,1.3391,1.3437,1.3435,1.3676,1.3463,1.3463,1.3463,1.3462,0,1.2532,1.264,1.2663,1.2739,1.2858,1.2864,1.2983,1.3013,1.3064,1.3145,1.3128,1.3205,1.3219,1.3299,1.3311,1.3431,1.3452,1.3466,1.3469,1.347,1.3468,1.3503,1.3492,1.3469,1.3468,1.3466,1.3465,0,1.2708,1.2728,1.2859,1.2918,1.2935,1.3021,1.3071,1.3144,1.3164,1.3267,1.3292,1.3326,1.3418,1.3439,1.355,1.3558,1.3701,1.3691,1.368,1.368,1.3766,1.3758,1.404,1.4077,1.3838,1.384,1.3842,0,1.2831,1.2913,1.298,1.3032,1.3068,1.3153,1.3206,1.3214,1.327,1.3347,1.341,1.35,1.3574,1.3723,1.3758,1.3843,1.3836,1.3929,1.3849,1.3847,1.384,1.3836,1.3844,1.3945,1.3948,1.395,1.3951,0,1.3048,1.3053,1.313,1.321,1.3273,1.3337,1.3397,1.3441,1.3457,1.3521,1.3615,1.3671,1.3783,1.3873,1.3957,1.3993,1.3976,1.3975,1.4,1.4003,1.3994,1.4002,1.3724,1.397,1.3968,1.3967,1.3966,1.3965,1.3203,1.3275,1.3332,1.3418,1.3463,1.352,1.359,1.3619,1.3697,1.3787,1.3787,1.389,1.3949,1.406,1.41,1.4181,1.4152,1.4188,1.4197,1.4207,1.4215,1.3978,1.4196,1.4195,1.4195,1.4194,1.4194,0,1.3421,1.3456,1.3534,1.3618,1.3685,1.366,1.3725,1.3783,1.3873,1.3929,1.4001,1.4108,1.4195,1.4235,1.4321,1.4378,1.4372,1.44,1.4398,1.4406,1.4235,1.4206,1.4404,1.4403,1.4403,1.4403,1.4403,1.4403,1.3542,1.3662,1.3673,1.3815,1.3849,1.3949,1.3988,1.404,1.4084,1.4205,1.4276,1.43,1.435,1.4439,1.4518,1.4527,1.4561,1.4593,1.4599,1.444,1.4418,1.4398,1.4371,1.46,1.46,1.4764,1.4765,1.4767]}]]